This demonstration page uses our WeatherBlox Daily Observations layout. Learn more.

Left ArrowRight Arrow

Hourly Observations for November 17, 2019

Temp ( °F °C ) Dew Point ( °F °C ) Humidity (%) Winds ( mph kmh ) Pressure ( in mb ) Visibility ( mi km ) Precip ( " mm )
12:53 am 00:53 Cloudy 41 5 38 3.3 89 89 NNE 3 6 30.06 1018 10 16 0.00 0.00
1:53 am 01:53 Mostly Clear 40 4.4 38 3.3 93 93 Calm 30.05 1018 10 16 0.00 0.00
2:53 am 02:53 Clear 39 3.9 37 2.8 93 93 Calm 30.04 1017 10 16 0.00 0.00
3:53 am 03:53 Clear 37 2.8 35 1.7 93 93 Calm 30.05 1018 8 13 0.00 0.00
4:53 am 04:53 Cloudy 37 2.8 36 2.2 96 96 Calm 30.06 1018 9 14 0.00 0.00
5:53 am 05:53 Cloudy 41 5 39 3.9 93 93 Calm 30.07 1018 10 16 0.00 0.00
6:53 am 06:53 Cloudy 43 6.1 40 4.4 89 89 Calm 30.07 1018 10 16 0.00 0.00
7:24 am 07:24 Cloudy 44 6.7 40 4.4 85 85 Calm 30.10 1019 10 16 0.00 0.00
7:53 am 07:53 Cloudy 45 7.2 40 4.4 83 83 Calm 30.09 1019 10 16 0.00 0.00
8:53 am 08:53 Cloudy 48 8.9 37 2.8 66 66 Calm 30.08 1019 10 16 0.00 0.00
9:53 am 09:53 Cloudy 53 11.7 37 2.8 55 55 VRB 3 6 30.07 1018 10 16 0.00 0.00
10:53 am 10:53 Cloudy 56 13.3 39 3.9 53 53 Calm 30.06 1018 10 16 0.00 0.00
11:39 am 11:39 Partly Cloudy 61 16.1 42 5.6 50 50 Calm 30.01 1016 10 16 0.00 0.00
11:53 am 11:53 Sunny 61 16.1 43 6.1 52 52 Calm 30.01 1016 10 16 0.00 0.00
12:53 pm 12:53 Mostly Sunny 64 17.8 48 8.9 56 56 NW 3 6 29.96 1015 10 16 0.00 0.00
1:53 pm 13:53 Partly Cloudy 66 18.9 49 9.4 54 54 NNW 5 7 29.94 1014 10 16 0.00 0.00
2:53 pm 14:53 Cloudy 64 17.8 48 8.9 56 56 Calm 29.92 1013 10 16 0.00 0.00
3:53 pm 15:53 Cloudy 64 17.8 48 8.9 56 56 Calm 29.91 1013 10 16 0.00 0.00
4:53 pm 16:53 Cloudy 63 17.2 49 9.4 60 60 SSW 3 6 29.91 1013 10 16 0.00 0.00
5:53 pm 17:53 Cloudy 62 16.7 49 9.4 62 62 Calm 29.91 1013 10 16 0.00 0.00
6:53 pm 18:53 Cloudy 61 16.1 50 10 67 67 Calm 29.91 1013 10 16 0.00 0.00
7:53 pm 19:53 Mostly Cloudy 57 13.9 51 10.6 81 81 Calm 29.89 1012 10 16 0.00 0.00
8:53 pm 20:53 Cloudy 58 14.4 51 10.6 78 78 Calm 29.90 1012 10 16 0.00 0.00
9:53 pm 21:53 Cloudy 55 12.8 51 10.6 87 87 Calm 29.89 1012 10 16 0.00 0.00
10:53 pm 22:53 Cloudy 55 12.8 52 11.1 90 90 Calm 29.88 1012 10 16 0.00 0.00
11:53 pm 23:53 Clear 55 12.8 51 10.6 87 87 Calm 29.88 1012 10 16 0.00 0.00

Powered by AerisWeather